Henderson, KY

9:38 AM CDT on August 21, 2019 (GMT -0500)
Henderson City-County

Weather History for KEHR - June, 2019

Change the Weather History Date:

Monday, June 10, 2019

  Actual Average Record
Temperature  
Mean Temperature 72 °F -  
Max Temperature 78 °F 84 °F 96 °F (1953)
Min Temperature 66 °F 62 °F 46 °F (1988)
Cooling Degree Days 7    
Growing Degree Days 22 (Base 50)    
Moisture  
Dew Point 57 °F    
Average Humidity 64    
Maximum Humidity 97    
Minimum Humidity 28    
Precipitation  
Precipitation 0.00 in - - ()
Sea Level Pressure  
Sea Level Pressure 30.07 in    
Wind  
Wind Speed 9 mph (NW)    
Max Wind Speed 17 mph    
Max Gust Speed 25 mph    
Visibility 10 miles    
Events      
Averages and records for this station are not official NWS values.
T = Trace of Precipitation, MM = Missing Value Source: NWS Daily Summary

Daily Weather History Graph

Daily Weather History Graph

Search for Another Location

Airport or City:

Astronomy

Jun. 10, 2019 Rise Set
Actual Time 5:28 AM CDT 8:12 PM CDT
Civil Twilight 4:57 AM CDT 8:43 PM CDT
Nautical Twilight 4:18 AM CDT 9:22 PM CDT
Astronomical Twilight 3:34 AM CDT 10:06 PM CDT
Moon 1:11 PM CDT (6/10) 1:30 AM CDT (6/10)
Length of Visible Light 15h 46m
Length of Day
14h 43m
First Quarter, 55% of the Moon is Illuminated
Jun 10
First Quarter
Jun 17
Full
Jun 25
Last Quarter
Jul 2
New
Jul 9
First Quarter

Hourly Weather History & Observations

Time (CDT) Temp. Dew Point Humidity Pressure Visibility Wind Dir Wind Speed Gust Speed Precip Events Conditions
12:56 AM 73.0 °F 69.1 °F 87% 29.92 in 10.0 mi WNW 4.6 mph - N/A   Clear
1:56 AM 71.1 °F 70.0 °F 96% 29.91 in 10.0 mi West 3.5 mph - N/A   Clear
2:56 AM 71.1 °F 70.0 °F 96% 29.92 in 8.0 mi West 4.6 mph - N/A   Clear
3:56 AM 70.0 °F 69.1 °F 97% 29.93 in 10.0 mi West 6.9 mph - N/A   Clear
4:56 AM 71.1 °F 66.9 °F 87% 29.96 in 10.0 mi WNW 9.2 mph - N/A   Clear
5:56 AM 70.0 °F 66.9 °F 90% 29.99 in 10.0 mi WNW 10.4 mph - N/A   Clear
6:52 AM 71.6 °F 66.2 °F 83% 30.03 in 10.0 mi WNW 13.8 mph - N/A   Mostly Cloudy
6:56 AM 71.1 °F 66.9 °F 87% 30.02 in 10.0 mi WNW 12.7 mph - N/A   Mostly Cloudy
7:56 AM 70.0 °F 64.0 °F 81% 30.04 in 10.0 mi WNW 13.8 mph - N/A   Overcast
8:56 AM 69.1 °F 62.1 °F 78% 30.07 in 10.0 mi NW 13.8 mph 21.9 mph N/A   Overcast
9:56 AM 68.0 °F 61.0 °F 78% 30.08 in 10.0 mi NW 12.7 mph 25.3 mph N/A   Overcast
10:56 AM 70.0 °F 61.0 °F 73% 30.11 in 10.0 mi NNW 15.0 mph 20.7 mph N/A   Overcast
11:56 AM 70.0 °F 60.1 °F 71% 30.12 in 10.0 mi NNW 11.5 mph 19.6 mph N/A   Mostly Cloudy
12:07 PM 71.6 °F 60.8 °F 69% 30.13 in 10.0 mi NNW 17.3 mph 25.3 mph N/A   Scattered Clouds
12:56 PM 73.0 °F 57.0 °F 57% 30.12 in 10.0 mi NNW 13.8 mph 23.0 mph N/A   Clear
1:56 PM 75.0 °F 53.1 °F 46% 30.12 in 10.0 mi NNW 13.8 mph 23.0 mph N/A   Clear
2:56 PM 77.0 °F 51.1 °F 40% 30.12 in 10.0 mi NW 13.8 mph - N/A   Clear
3:56 PM 78.1 °F 51.1 °F 39% 30.12 in 10.0 mi NNW 13.8 mph 21.9 mph N/A   Clear
4:56 PM 78.1 °F 48.0 °F 35% 30.12 in 10.0 mi NNW 13.8 mph 19.6 mph N/A   Clear
5:56 PM 78.1 °F 42.1 °F 28% 30.12 in 10.0 mi NNW 8.1 mph 18.4 mph N/A   Clear
6:56 PM 77.0 °F 43.0 °F 30% 30.13 in 10.0 mi North 5.8 mph 16.1 mph N/A   Clear
7:56 PM 73.9 °F 45.0 °F 35% 30.14 in 10.0 mi NNW 4.6 mph - N/A   Clear
8:56 PM 70.0 °F 46.9 °F 44% 30.15 in 10.0 mi NNW 4.6 mph - N/A   Clear
9:56 PM 69.1 °F 46.0 °F 44% 30.17 in 10.0 mi NNW 3.5 mph - N/A   Clear
10:56 PM 66.0 °F 48.0 °F 52% 30.18 in 10.0 mi NW 5.8 mph - N/A   Clear
11:56 PM 66.9 °F 46.0 °F 47% 30.18 in 10.0 mi NNW 4.6 mph - N/A   Clear